Regional Weather Roundup
Issued by NWS

Home | Current Version | Previous Version | Graphics & Text | Print | Product List | Glossary On
Versions: 1 2 3 4 5 6 7 8 9 10 11 12 13 14 15 16 17 18 19 20 21 22 23 24 25 26 27
000
ASUS45 KBOU 160606
RWRCO

WEATHER ROUNDUP FOR COLORADO
NATIONAL WEATHER SERVICE DENVER/BOULDER CO
1200 AM MDT WED APR 16 2014

NOTE: "FAIR" INDICATES FEW OR NO CLOUDS BELOW 12000 FEET WITH NO
SIGNIFICANT WEATHER AND/OR OBSTRUCTIONS TO VISIBILITY.

COZ001>005-013-030-031-160700-
...NORTHWEST COLORADO...

CITY           SKY/WX    TMP DP  RH WIND       PRES   REMARKS
CRAIG          CLOUDY    43  25  49 SW9       29.82R
HAYDEN         MOCLDY    43  25  49 W12       29.84R
MEEKER         CLOUDY    47  18  31 NW15      29.81R
MOUNT WERNER   CLOUDY    32  12  43 W25G38    29.85F WCI  19
STEAMBOAT SPGS CLOUDY    44  16  32 W18G25    29.79R
WALDEN         CLOUDY    34  27  75 NW18G26   29.81R WCI  23
$$

COZ006>008-011-160700-
...WEST CENTRAL VALLEYS...

CITY           SKY/WX    TMP DP  RH WIND       PRES   REMARKS
GRAND JUNCTION PTCLDY    43  28  55 CALM      29.79F
MONTROSE       MOCLDY    52  11  19 CALM      29.86F
EAGLE          MOCLDY    37  27  65 E3        29.84S
RIFLE          MOCLDY    49  23  36 CALM      29.80F
DELTA          MOCLDY    46  25  43 N8        29.84F
NUCLA            N/A     45  14  29 E10       29.91S
$$

COZ017>023-064>068-160700-
...SOUTHWEST COLORADO...

CITY           SKY/WX    TMP DP  RH WIND       PRES   REMARKS
DURANGO        PTCLDY    36   1  22 CALM      29.94F
CORTEZ         PTCLDY    32  15  49 E5        29.91F WCI  27
PAGOSA SPRINGS PTCLDY    31   3  30 NE5       29.97S WCI  27
TELLURIDE      NOT AVBL
WOLF CREEK PAS NOT AVBL
$$

COZ009-010-012-014-032>034-037-058>063-160700-
...CENTRAL COLORADO...

CITY           SKY/WX    TMP DP  RH WIND       PRES   REMARKS
ASPEN          CLOUDY    44  11  26 CALM      29.86F
BUENA VISTA    CLEAR     44   7  22 NW5       29.86F
COPPER MTN     SNOW      30  10  43 W35G53    29.93F VSB 1/4 WCI  14
BERTHOUD PASS  CLOUDY    21  12  68 W46G60    29.84F WCI   0
COTTONWOOD PAS CLEAR     39   1  20 NW23G39   29.86F
GUNNISON       PTCLDY    30  16  55 NE5       29.94F WCI  25
KREMMLING      CLOUDY    45  14  29 W12G22    29.81F
LEADVILLE      CLOUDY    34   9  35 W15G33    29.91S WCI  24
MONARCH PASS   CLEAR     25   7  46 W40G55    30.06F WCI   6
SALIDA         CLEAR     45   6  20 CALM      29.93F
SUNLIGHT       CLOUDY    32  19  59 S5        29.94F WCI  27
WILKERSON PASS PTCLDY    28   9  43 SW8       29.92S WCI  20
$$

COZ069>075-160700-
...SAN LUIS VALLEY/SANGRE DE CRISTO MOUNTAINS...

CITY           SKY/WX    TMP DP  RH WIND       PRES   REMARKS
ALAMOSA        CLEAR     40   8  26 S12       29.92F
LA VETA PASS   CLEAR     34   3  27 SW17G31   29.91S WCI  23
SAGUACHE       PTCLDY    39   7  26 CALM      29.91S
$$

COZ035-036-038>040-160700-
...NORTHERN COLORADO FRONT RANGE...

CITY           SKY/WX    TMP DP  RH WIND       PRES   REMARKS
DENVER INTL AP MOCLDY    50  14  23 SW10      29.67F
DMNS CITY PARK   N/A     49  16  27 S7        29.67F
AURORA         MOCLDY    45  18  33 S13       29.69F
FRONT RANGE AP NOT AVBL
ERIE MUNI ARPT MOCLDY    52  14  21 S7        29.66F
BOULDER MUN AP MOCLDY    57  14  18 W12G23    29.65F
CENTENNIAL     PTCLDY    47  16  29 SW12      29.70F
BROOMFIELD     MOCLDY    52  14  22 SE5       29.68F
FORT COLLINS   PTCLDY    54  18  24 W10G23    29.68R
LONGMONT       PTCLDY    57  18  21 W9        29.67F
$$

COZ041-046-047-076>085-087-088-160700-
...PIKES PEAK/PALMER DIVIDE AND SOUTHERN FOOTHILLS...

CITY           SKY/WX    TMP DP  RH WIND       PRES   REMARKS
COLO. SPRINGS  MOCLDY    50   8  18 SE10      29.75F
A. F. ACADEMY  PTCLDY    50   9  18 NE14      29.77R
ELLICOTT       NOT AVBL
FALCON         PTCLDY    47   8  20 W9        29.79S
FORT CARSON    PTCLDY    53  10  17 SW14      29.73F
LIMON          MOCLDY    32  27  81 W3        29.70F
MONUMENT HILL  PTCLDY    41  12  30 SW9       29.76F
TRINIDAD       PTCLDY    44  15  31 NW3       29.77F
$$

COZ042>045-048>051-090-091-160700-
...NORTHEAST COLORADO...

CITY           SKY/WX    TMP DP  RH WIND       PRES   REMARKS
GREELEY ARPT   PTCLDY    48  19  32 SW7       29.66S
AKRON          CLOUDY    46  28  49 SW14      29.64F
BURLINGTON     PTCLDY    43  25  49 S17       29.64F
WRAY           CLOUDY    50  26  39 SW3       29.63F
STERLING       CLOUDY    43  36  75 SW7       29.61F
HOLYOKE        CLOUDY    43  32  65 S10       29.62F
FORT MORGAN    CLOUDY    40  30  67 SW3       29.64F
$$

COZ086-089-092>099-160700-
...SOUTHEAST COLORADO...

CITY           SKY/WX    TMP DP  RH WIND       PRES   REMARKS
PUEBLO         PTCLDY    49  20  31 NW15      29.70F
LA JUNTA       CLEAR     51  22  31 SW13      29.68S
LAMAR          CLEAR     50  24  36 SW13      29.64S
SPRINGFIELD    NOT AVBL
$$



USA.gov is the U.S. government's official web portal to all federal, state and local government web resources and services.